Date String (YYYY-MM-DD hh:mm:ss) UTC,Instrument flags,absolute air pressure of the measurement (hPa),sample flow rate (lpm),inlet stack bypass flow (lpm),air temperature of the measurement (°C),ambient temperature measured by the external sensor (°C),aerosol sample conditioner tube jacket temperature (°C),OPC LED temperature (°C),internal box temperature (°C),relative humidity of the measurement (%),span deviation,mass concentration of particles derived from Lorenz-Mie calculation of OPC scattering (μg/m³),mass concentration of particles derived from Lorenz-Mie calculation of OPC scattering (μg/m³),mass concentration of particles derived from Lorenz-Mie calculation of OPC scattering (μg/m³)
DateTimeUTC,F1_M11,P_M11,Q1_M11,Q2_M11,T1_M11,T2_M11,T3_M11,T4_M11,T5_M11,U1_M11,ZSPAN_M11,X0_M11,X2_M11,X1_M11
2023-06-10 22:00:00,SystemResetWarning,0828.8,5.00,000.00,029.2,025.7,000.0,037.7,030.6,18.2,0000.0,0004.21,0002.31,0001.70
2023-06-10 22:01:00,SystemResetWarning,0828.8,5.02,000.00,029.2,026.1,000.0,037.7,030.6,17.3,0000.0,0004.28,0002.35,0001.71
2023-06-10 22:02:00,SystemResetWarning,0828.7,4.99,000.00,029.2,026.4,000.0,037.7,030.7,17.7,0000.0,0004.32,0002.38,0001.73
2023-06-10 22:03:00,SystemResetWarning,0828.8,4.99,000.00,029.2,026.7,000.0,037.7,030.7,18.9,0000.0,0004.44,0002.40,0001.74
2023-06-10 22:04:00,SystemResetWarning,0828.8,5.00,000.00,029.2,027.0,000.0,037.7,030.7,19.1,0000.0,0005.64,0002.44,0001.75
2023-06-10 22:05:00,SystemResetWarning,0828.8,5.00,000.00,029.2,027.2,000.0,037.7,030.7,19.5,0000.0,0005.66,0002.45,0001.76
2023-06-10 22:06:00,SystemResetWarning,0828.9,5.00,000.00,029.2,027.4,000.0,037.7,030.8,19.2,0000.0,0005.53,0002.49,0001.78
2023-06-10 22:07:00,SystemResetWarning,0828.9,5.01,000.00,029.3,027.6,000.0,037.8,030.8,19.2,0000.0,0006.34,0002.52,0001.80
2023-06-10 22:08:00,SystemResetWarning,0828.9,5.00,000.00,029.3,027.8,000.0,037.8,030.9,19.1,0000.0,0006.49,0002.48,0001.80
2023-06-10 22:09:00,SystemResetWarning,0828.9,4.99,000.00,029.3,027.9,000.0,037.8,031.0,19.2,0000.0,0006.57,0002.47,0001.80
2023-06-10 22:10:00,SystemResetWarning,0828.9,5.00,000.00,029.3,028.0,000.0,037.8,031.0,18.9,0000.0,0006.57,0002.45,0001.81
2023-06-10 22:11:00,SystemResetWarning,0828.9,5.01,000.00,029.4,028.1,000.0,037.8,031.0,18.8,0000.0,0006.39,0002.44,0001.83
2023-06-10 22:12:00,SystemResetWarning,0828.9,5.00,000.00,029.4,028.2,000.0,037.9,031.1,18.8,0000.0,0006.31,0002.42,0001.84
2023-06-10 22:13:00,SystemResetWarning,0828.8,5.00,000.00,029.5,027.3,000.0,037.8,031.1,19.2,0000.0,0006.51,0002.45,0001.84
2023-06-10 22:14:00,SystemResetWarning,0828.7,4.98,000.00,029.5,025.3,000.0,037.8,031.0,19.6,0000.0,0006.65,0002.50,0001.84
2023-06-10 22:15:00,SystemResetWarning,0828.8,5.01,000.00,029.4,025.0,000.0,037.8,031.0,19.9,0000.0,0005.85,0002.52,0001.84
2023-06-10 22:16:00,SystemResetWarning,0828.8,5.01,000.00,029.3,025.2,000.0,037.8,030.7,20.8,0000.0,0006.23,0002.56,0001.84
2023-06-10 22:17:00,SystemResetWarning,0828.8,4.99,000.00,029.3,025.6,000.0,037.8,030.6,21.4,0000.0,0006.36,0002.62,0001.87
2023-06-10 22:18:00,SystemResetWarning,0828.7,5.00,000.00,029.2,026.0,000.0,037.8,030.7,22.4,0000.0,0006.03,0002.69,0001.91
2023-06-10 22:19:00,SystemResetWarning,0828.7,5.00,000.00,029.2,026.4,000.0,037.8,030.7,23.4,0000.0,0005.83,0002.81,0001.98
2023-06-10 22:20:00,SystemResetWarning,0828.7,4.99,000.00,029.2,026.7,000.0,037.8,030.7,24.6,0000.0,0007.41,0003.01,0002.08
2023-06-10 22:21:00,SystemResetWarning,0828.7,5.00,000.00,029.2,027.0,000.0,037.8,030.8,25.2,0000.0,0008.28,0003.19,0002.16
2023-06-10 22:22:00,SystemResetWarning,0828.9,5.01,000.00,029.3,027.2,000.0,037.8,030.8,24.8,0000.0,0009.28,0003.32,0002.26
2023-06-10 22:23:00,SystemResetWarning,0828.9,5.01,000.00,029.3,027.4,000.0,037.8,030.8,24.5,0000.0,0010.21,0003.45,0002.33
2023-06-10 22:24:00,SystemResetWarning,0829.0,5.00,000.00,029.3,027.6,000.0,037.8,030.8,24.8,0000.0,0010.51,0003.56,0002.41
2023-06-10 22:25:00,SystemResetWarning,0828.9,5.00,000.00,029.3,027.7,000.0,037.8,030.9,23.6,0000.0,0011.27,0003.62,0002.48
2023-06-10 22:26:00,SystemResetWarning,0829.0,5.00,000.00,029.3,027.8,000.0,037.8,030.9,20.5,0000.0,0011.17,0003.61,0002.48
2023-06-10 22:27:00,SystemResetWarning,0828.9,4.98,000.00,029.3,027.9,000.0,037.8,031.0,20.6,0000.0,0010.77,0003.56,0002.48
2023-06-10 22:28:00,SystemResetWarning,0828.9,5.00,000.00,029.4,028.0,000.0,037.8,031.0,19.0,0000.0,0010.62,0003.50,0002.45
2023-06-10 22:29:00,SystemResetWarning,0828.9,5.00,000.00,029.4,028.0,000.0,037.9,031.0,18.6,0000.0,0010.62,0003.49,0002.42
2023-06-10 22:30:00,SystemResetWarning,0829.0,5.00,000.00,029.4,028.1,000.0,037.9,031.1,18.7,0000.0,0010.43,0003.46,0002.35
2023-06-10 22:31:00,SystemResetWarning,0828.9,5.01,000.00,029.5,028.1,000.0,037.9,031.0,18.7,0000.0,0009.49,0003.36,0002.26
2023-06-10 22:32:00,SystemResetWarning,0828.9,5.00,000.00,029.5,028.2,000.0,037.9,031.1,18.5,0000.0,0008.70,0003.25,0002.18
2023-06-10 22:33:00,SystemResetWarning,0828.9,4.98,000.00,029.5,026.7,000.0,037.9,031.1,19.0,0000.0,0007.82,0003.17,0002.10
2023-06-10 22:34:00,SystemResetWarning,0828.8,5.01,000.00,029.5,025.1,000.0,037.8,031.0,20.8,0000.0,0006.83,0003.07,0002.05
2023-06-10 22:35:00,SystemResetWarning,0828.7,5.01,000.00,029.4,025.0,000.0,037.8,030.9,22.3,0000.0,0006.90,0002.96,0001.99
2023-06-10 22:36:00,SystemResetWarning,0828.8,5.00,000.00,029.3,025.3,000.0,037.8,030.6,22.2,0000.0,0005.82,0002.87,0001.95
2023-06-10 22:37:00,SystemResetWarning,0828.8,4.99,000.00,029.3,025.7,000.0,037.8,030.6,22.0,0000.0,0005.63,0002.87,0001.95
2023-06-10 22:38:00,SystemResetWarning,0828.8,5.00,000.00,029.2,026.1,000.0,037.8,030.6,21.7,0000.0,0005.74,0002.93,0001.98
2023-06-10 22:39:00,SystemResetWarning,0828.9,5.01,000.00,029.2,026.4,000.0,037.8,030.6,22.2,0000.0,0005.96,0003.03,0002.01
2023-06-10 22:40:00,SystemResetWarning,0829.0,4.99,000.00,029.2,026.7,000.0,037.8,030.6,23.0,0000.0,0005.90,0003.04,0002.03
2023-06-10 22:41:00,SystemResetWarning,0829.0,4.99,000.00,029.2,027.0,000.0,037.8,030.7,22.0,0000.0,0006.01,0003.09,0002.05
2023-06-10 22:42:00,SystemResetWarning,0828.9,5.00,000.00,029.2,027.2,000.0,037.8,030.7,20.8,0000.0,0005.98,0003.10,0002.07
2023-06-10 22:43:00,SystemResetWarning,0828.9,5.00,000.00,029.3,027.4,000.0,037.8,030.7,20.4,0000.0,0005.93,0003.12,0002.11
2023-06-10 22:44:00,SystemResetWarning,0829.0,5.00,000.00,029.3,027.5,000.0,037.8,030.8,21.5,0000.0,0005.91,0003.11,0002.12
2023-06-10 22:45:00,SystemResetWarning,0829.0,5.00,000.00,029.3,027.7,000.0,037.8,030.8,22.0,0000.0,0006.38,0003.10,0002.12
2023-06-10 22:46:00,SystemResetWarning,0829.0,5.01,000.00,029.3,027.8,000.0,037.8,030.8,22.1,0000.0,0005.99,0003.07,0002.11
2023-06-10 22:47:00,SystemResetWarning,0829.0,5.00,000.00,029.3,027.9,000.0,037.8,030.9,21.4,0000.0,0005.65,0003.08,0002.12
2023-06-10 22:48:00,SystemResetWarning,0829.0,5.00,000.00,029.4,028.0,000.0,037.9,030.9,20.5,0000.0,0005.69,0003.10,0002.13
2023-06-10 22:49:00,SystemResetWarning,0829.0,4.99,000.00,029.4,028.0,000.0,037.9,031.0,20.4,0000.0,0005.79,0003.10,0002.13
2023-06-10 22:50:00,SystemResetWarning,0828.9,4.99,000.00,029.4,028.1,000.0,037.9,031.0,20.7,0000.0,0005.70,0003.08,0002.12
2023-06-10 22:51:00,SystemResetWarning,0828.9,5.00,000.00,029.5,028.2,000.0,037.9,031.0,20.0,0000.0,0005.56,0003.02,0002.09
2023-06-10 22:52:00,SystemResetWarning,0828.9,5.00,000.00,029.5,028.2,000.0,037.9,031.0,19.9,0000.0,0005.28,0002.92,0002.08
2023-06-10 22:53:00,SystemResetWarning,0829.0,5.00,000.00,029.5,027.4,000.0,037.9,031.1,20.1,0000.0,0005.20,0002.88,0002.05
2023-06-10 22:54:00,SystemResetWarning,0828.9,5.01,000.00,029.5,025.4,000.0,037.9,031.1,19.5,0000.0,0005.18,0002.84,0002.03
2023-06-10 22:55:00,SystemResetWarning,0828.8,5.00,000.00,029.5,025.1,000.0,037.8,031.0,19.2,0000.0,0005.11,0002.82,0002.03
2023-06-10 22:56:00,SystemResetWarning,0828.8,5.01,000.00,029.4,025.3,000.0,037.8,030.8,20.2,0000.0,0004.76,0002.81,0002.00
2023-06-10 22:57:00,SystemResetWarning,0828.8,5.00,000.00,029.3,025.7,000.0,037.8,030.7,19.9,0000.0,0004.68,0002.83,0002.01
2023-06-10 22:58:00,SystemResetWarning,0828.8,5.00,000.00,029.3,026.1,000.0,037.8,030.7,20.0,0000.0,0004.54,0002.78,0002.00
2023-06-10 22:59:00,SystemResetWarning,0828.8,5.00,000.00,029.3,026.5,000.0,037.8,030.7,20.1,0000.0,0004.58,0002.76,0001.99
